Location: Burzi?i
(45.0869°N, 16.0577°E)
Time: 04:38:29
(UTC+00:00)

Cosmos 1455 - Pass Details

Date: 29 October 2020
Orbit: 499 x 521 km, 82.5° (Epoch: 01 December)

Event Time Altitude Azimuth Distance (km) Brightness Sun altitude
Rises 16:17:17 0° 140° (SE) 2,601 5.5 -5.9°
Reaches altitude 10° 16:20:26 10° 111° (ESE) 1,729 4.4 -6.4°
Maximum altitude 16:22:06 13° 85° (E) 1,575 4.0 -6.7°
Drops below altitude 10° 16:23:47 10° 58° (ENE) 1,742 4.3 -7.0°
Sets 16:26:58 0° 29° (NNE) 2,641 5.4 -7.5°
